"Time","Temp","Dewpoint","Humidity","Pressure","Direction","Speed","Gust","Precip","PrecipRate"
"00:04:57","30.9","14","49","30.46","336","1.6","4","0.00","0.00"
"00:09:58","30.7","14.1","49.7","30.46","340","2.4","6","0.00","0.00"
"00:14:57","30.6","14.6","51","30.46","339","3.9","10.4","0.00","0.00"
"00:19:58","30.6","14.6","51","30.46","344","3.4","10.4","0.00","0.00"
"00:24:56","30.6","14.2","50.2","30.46","352","3.5","9.2","0.00","0.00"
"00:29:58","30.6","14.1","50","30.47","341","2","5","0.00","0.00"
"00:34:57","30.5","14","50","30.47","325","1.2","4","0.00","0.00"
"00:39:59","30.4","14","50","30.47","317","0.3","2.3","0.00","0.00"
"00:44:57","30.2","13.9","50.1","30.47","317","0.8","3.5","0.00","0.00"
"00:49:59","30","13.9","50.7","30.47","317","0.5","2.3","0.00","0.00"
"00:54:57","29.8","13.9","51","30.47","317","0.7","2.3","0.00","0.00"
"00:59:59","29.7","13.9","51.3","30.47","341","2.2","5","0.00","0.00"
"01:04:57","29.5","14","52","30.47","348","2.3","5","0.00","0.00"
"01:09:59","29.3","14.1","52.5","30.47","348","2.3","5","0.00","0.00"
"01:14:57","29.2","14.2","52.9","30.48","338","1.8","7","0.00","0.00"
"01:19:59","29.1","14.1","53","30.48","0","1.5","6.9","0.00","0.00"
"01:24:57","29.1","14.1","53","30.48","11","0.8","3.5","0.00","0.00"
"01:29:59","29","14","53","30.48","11","0.7","3.5","0.00","0.00"
"01:34:57","28.8","13.9","53.2","30.48","340","1.8","6","0.00","0.00"
"01:39:56","28.7","14.1","54","30.48","330","1.9","4","0.00","0.00"
"01:44:58","28.6","14.1","54.1","30.48","344","2.8","6","0.00","0.00"
"01:49:56","28.6","14","54.2","30.47","358","2.2","6","0.00","0.00"
"01:54:59","28.5","13.9","54","30.47","5","1","4.6","0.00","0.00"
"01:59:57","28.5","13.9","54","30.48","5","0.3","3.5","0.00","0.00"
"02:04:54","28.4","13.8","54","30.48","357","1.6","6","0.00","0.00"
"02:09:56","28.2","13.8","54.3","30.48","338","2.3","6","0.00","0.00"
"02:14:59","28.1","14","55.2","30.48","351","1.8","6","0.00","0.00"
"02:19:57","28","13.8","54.8","30.48","348","0.7","3.5","0.00","0.00"
"02:24:59","27.9","13.8","55","30.48","343","1.2","4","0.00","0.00"
"02:29:57","27.7","13.6","55","30.48","342","0.8","4","0.00","0.00"
"02:34:59","27.5","13.4","55","30.48","341","1.9","4","0.00","0.00"
"02:39:58","27.4","13.3","55","30.48","336","1.6","4","0.00","0.00"
"02:44:56","27.3","13.2","55","30.48","347","1.6","5","0.00","0.00"
"02:49:58","27.2","13.1","55","30.48","345","1.2","3.5","0.00","0.00"
"02:54:56","27.2","13.1","55","30.48","344","0.7","3.5","0.00","0.00"
"02:59:58","27.1","13.1","55","30.49","344","1.3","4","0.00","0.00"
"03:04:56","27","13","55","30.49","344","0.5","2.3","0.00","0.00"
"03:09:59","26.9","13.1","55.7","30.49","343","1.2","4","0.00","0.00"
"03:14:57","26.7","13.1","56","30.49","342","0.7","3.5","0.00","0.00"
"03:19:59","26.6","13","56","30.49","342","1.3","4","0.00","0.00"
"03:24:57","26.5","12.9","56","30.49","342","0.3","3.5","0.00","0.00"
"03:29:56","26.3","12.7","56","30.49","350","0.3","2.3","0.00","0.00"
"03:34:58","26.2","12.9","56.7","30.49","350","0.2","1.2","0.00","0.00"
"03:39:57","26","13","57.3","30.49","350","0.3","2.3","0.00","0.00"
"03:44:59","25.9","12.7","57","30.50","350","0.3","2.3","0.00","0.00"
"03:49:57","25.8","12.6","57","30.50","350","0.6","3.5","0.00","0.00"
"03:54:59","25.8","12.8","57.4","30.50","350","1","4","0.00","0.00"
"03:59:57","25.7","12.9","58","30.50","348","0.8","3.5","0.00","0.00"
"04:04:59","25.6","12.9","58","30.50","348","0.6","3.5","0.00","0.00"
"04:09:57","25.5","12.8","58","30.50","348","0.6","3.5","0.00","0.00"
"04:14:59","25.4","12.7","58","30.51","348","0.1","1.2","0.00","0.00"
"04:19:57","25.3","12.6","58","30.51","348","0.2","2.3","0.00","0.00"
"04:24:59","25.3","12.7","58.5","30.51","348","0.2","2.3","0.00","0.00"
"04:29:58","25.2","12.9","59","30.51","348","0.6","2.3","0.00","0.00"
"04:34:56","25","12.7","59","30.51","348","0.3","2","0.00","0.00"
"04:39:59","25","12.7","59","30.51","349","0.5","2.3","0.00","0.00"
"04:44:57","25","12.7","59","30.52","349","0","0","0.00","0.00"
"04:49:59","24.8","12.8","59.8","30.52","349","0","0","0.00","0.00"
"04:54:58","24.5","12.9","61","30.52","349","0","0","0.00","0.00"
"04:59:59","24.2","12.9","61.8","30.53","349","0","0","0.00","0.00"
"05:04:56","23.9","12.8","62","30.53","349","0","0","0.00","0.00"
"05:09:59","23.6","12.8","62.8","30.53","349","0","0","0.00","0.00"
"05:14:57","23.3","13","64.2","30.54","349","0","0","0.00","0.00"
"05:19:59","23","13","65","30.54","349","0","1","0.00","0.00"
"05:24:57","22.8","12.5","64.1","30.54","349","0.1","1.2","0.00","0.00"
"05:29:56","22.8","11.9","62.5","30.55","349","0.2","1.2","0.00","0.00"
"05:34:58","23","11.5","61.2","30.55","349","0.3","2.3","0.00","0.00"
"05:39:56","23.1","11.5","60.4","30.55","349","0.4","2.3","0.00","0.00"
"05:44:58","23.3","11.2","59.1","30.55","349","0.5","2.3","0.00","0.00"
"05:49:57","23.5","11","58.3","30.55","348","0.6","2.3","0.00","0.00"
"05:54:59","23.6","10.6","57.1","30.55","348","0.2","2.3","0.00","0.00"
"05:59:56","23.6","10.6","57","30.56","348","0.4","2.3","0.00","0.00"
"06:04:58","23.6","10.6","57","30.56","348","0.2","2.3","0.00","0.00"
"06:09:57","23.5","10.5","57","30.56","348","0","0","0.00","0.00"
"06:14:56","23.3","10.6","57.6","30.57","348","0","0","0.00","0.00"
"06:19:58","23.1","11.1","59.5","30.57","348","0","0","0.00","0.00"
"06:24:56","22.9","10.3","58.2","30.57","348","0","0","0.00","0.00"
"06:29:58","22.7","10.5","59","30.57","348","0","0","0.00","0.00"
"06:34:57","22.5","10.9","60.4","30.57","348","0","0","0.00","0.00"
"06:39:56","22.2","11.5","63","30.57","348","0","0","0.00","0.00"
"06:44:58","22","11.2","62.6","30.57","348","0","0","0.00","0.00"
"06:49:57","21.9","11","62.3","30.57","348","0","0","0.00","0.00"
"06:54:59","21.8","11.6","64.5","30.57","348","0","0","0.00","0.00"
"06:59:57","21.7","11.8","65.4","30.58","348","0","0","0.00","0.00"
"07:04:59","21.6","12.2","66.7","30.58","348","0","0","0.00","0.00"
"07:09:57","21.5","12.3","67.2","30.58","348","0","0","0.00","0.00"
"07:14:59","21.5","12.3","67.2","30.59","348","0","0","0.00","0.00"
"07:19:56","21.6","12.2","66.5","30.59","348","0","0","0.00","0.00"
"07:24:58","21.9","12.5","66.5","30.59","348","0","0","0.00","0.00"
"07:29:59","22.3","12.3","65","30.60","348","0","0","0.00","0.00"
"07:34:58","22.6","12.9","65.8","30.60","348","0","0","0.00","0.00"
"07:39:56","23.2","12.6","63.5","30.60","348","0.5","3.5","0.00","0.00"
"07:44:57","24.1","12.6","61.1","30.61","348","1.1","3.5","0.00","0.00"
"07:49:59","25.2","12.5","58.1","30.61","345","2.1","5","0.00","0.00"
"07:54:57","26","12.6","56.6","30.61","345","1.5","3.5","0.00","0.00"
"07:59:59","26.7","12.6","54.8","30.61","345","0.6","2.3","0.00","0.00"
"08:04:56","27.5","12.4","52.7","30.61","335","1.6","4","0.00","0.00"
"08:09:58","28","12.7","52.2","30.61","334","0.4","2.3","0.00","0.00"
"08:14:56","28.4","12.1","50","30.62","334","1.5","3.5","0.00","0.00"
"08:19:58","29","12.1","48.9","30.62","335","1","3.5","0.00","0.00"
"08:24:56","29.5","12.9","49.6","30.62","335","0.4","1.2","0.00","0.00"
"08:29:57","29.9","13.2","49.3","30.62","335","0.2","2.3","0.00","0.00"
"08:34:59","30.1","13","48.4","30.61","334","0.7","2.3","0.00","0.00"
"08:39:57","30.6","12.5","46.6","30.61","341","0.8","3.5","0.00","0.00"
"08:44:59","31","13.2","47.3","30.61","343","2.4","5","0.00","0.00"
"08:49:56","31","13.4","47.7","30.61","359","2.3","5","0.00","0.00"
"08:54:58","31.5","13.7","47.2","30.61","49","2","5","0.00","0.00"
"08:59:59","32.1","13.1","45.1","30.61","37","1.3","4","0.00","0.00"
"09:04:56","32.4","12.9","44","30.61","101","1.3","5","0.00","0.00"
"09:09:58","32.4","12.9","43.9","30.61","121","1.8","4","0.00","0.00"
"09:14:58","32","12.9","44.8","30.61","130","1.8","4","0.00","0.00"
"09:19:56","32.1","13","45","30.61","145","1.5","3.5","0.00","0.00"
"09:24:58","32.6","14","46","30.61","136","1.5","3.5","0.00","0.00"
"09:29:59","33.1","14.6","46.1","30.61","167","1.8","6","0.00","0.00"
"09:34:57","33.2","14.4","45.5","30.61","187","2.3","6","0.00","0.00"
"09:39:59","33.5","14.5","45.3","30.61","146","2.1","5","0.00","0.00"
"09:44:57","33.8","14.6","44.8","30.61","140","2.2","5","0.00","0.00"
"09:49:58","34.1","14.2","43.6","30.61","144","1.3","4","0.00","0.00"
"09:54:56","34.4","14.3","43.2","30.61","174","2.8","5","0.00","0.00"
"09:59:57","34.5","15.2","44.7","30.61","199","3.4","10.4","0.00","0.00"
"10:04:59","34.7","15.3","44.7","30.61","178","2.8","5.8","0.00","0.00"
"10:09:57","35.1","15.6","44.4","30.61","199","2.7","11","0.00","0.00"
"10:14:59","35.4","15.7","44.1","30.61","174","2.8","11.5","0.00","0.00"
"10:19:57","35.5","15.5","43.5","30.61","153","3.3","7","0.00","0.00"
"10:24:58","35.6","15","42.5","30.61","205","4.3","9.2","0.00","0.00"
"10:29:59","35.5","15.6","43.7","30.61","186","1.9","4.6","0.00","0.00"
"10:34:57","35.8","16","44","30.60","138","2.2","10","0.00","0.00"
"10:39:59","35.9","15.5","42.9","30.60","207","5.8","11.5","0.00","0.00"
"10:44:56","36.2","16.1","43.5","30.60","255","2.7","6","0.00","0.00"
"10:49:58","36","15.3","42.4","30.60","318","3.7","7","0.00","0.00"
"10:54:59","35.9","15.5","42.8","30.60","200","4.1","11.5","0.00","0.00"
"10:59:57","36.2","15.8","43","30.60","206","3.9","9.2","0.00","0.00"
"11:04:58","36.5","16.4","43.5","30.60","218","2","6","0.00","0.00"
"11:09:55","37.1","16.5","42.9","30.60","184","2.7","11","0.00","0.00"
"11:14:58","37.6","16.7","42.3","30.60","210","4","11.5","0.00","0.00"
"11:19:59","37.9","16.3","40.9","30.58","173","3.7","10.4","0.00","0.00"
"11:24:56","38.1","16.5","41","30.58","209","3.1","7","0.00","0.00"
"11:29:58","38.3","18","43.4","30.58","183","2.6","6","0.00","0.00"
"11:34:59","38.8","17.7","42.1","30.58","188","3.1","9.2","0.00","0.00"
"11:39:57","39","17.2","41","30.58","185","2.8","7","0.00","0.00"
"11:44:59","39.2","17.4","41","30.58","167","3.3","7","0.00","0.00"
"11:49:57","39.4","18.3","42.1","30.58","145","2.4","4","0.00","0.00"
"11:54:58","39.4","17.7","41.2","30.58","221","3.1","6","0.00","0.00"
"11:59:56","39.7","18.7","42.5","30.58","192","4.8","11.5","0.00","0.00"
"12:04:57","40.3","19","42.1","30.57","202","3.7","9.2","0.00","0.00"
"12:09:59","40.7","19","41.4","30.57","215","5.6","14","0.00","0.00"
"12:14:57","40.7","18.6","40.7","30.57","202","3.7","9.2","0.00","0.00"
"12:19:58","40.6","19.1","41.6","30.55","165","3.9","10.4","0.00","0.00"
"12:24:59","40.9","19.3","41.7","30.55","185","3.8","11.5","0.00","0.00"
"12:29:57","41.3","19","40.4","30.55","203","4.3","8.1","0.00","0.00"
"12:34:59","41.3","19.7","41.7","30.55","177","3.3","6","0.00","0.00"
"12:39:57","41.2","19.4","41.3","30.55","140","2.5","5","0.00","0.00"
"12:44:58","41.5","18.6","39.4","30.55","160","4.9","11.5","0.00","0.00"
"12:49:56","41.8","19.8","41","30.53","177","2.8","6","0.00","0.00"
"12:54:57","42.3","20.3","41.1","30.53","179","2.7","6","0.00","0.00"
"12:59:59","42.9","20.3","40.2","30.53","180","4.2","8.1","0.00","0.00"
"13:04:56","43.2","19.3","38.1","30.53","154","2.7","8.1","0.00","0.00"
"13:09:58","43","19.4","38.6","30.53","192","3.9","12","0.00","0.00"
"13:14:56","43.4","20.6","39.8","30.53","226","4.3","11.5","0.00","0.00"
"13:19:57","43.3","19.5","38.2","30.52","139","3.3","10.4","0.00","0.00"
"13:24:58","43.2","19.3","38","30.52","200","4.2","10.4","0.00","0.00"
"13:29:56","43.4","19.5","38","30.52","188","3.7","11.5","0.00","0.00"
"13:34:57","43.6","20","38.6","30.50","203","4.5","9.2","0.00","0.00"
"13:39:59","44","19.9","37.8","30.50","203","4.7","9.2","0.00","0.00"
"13:44:57","44.2","20.5","38.5","30.50","204","5.6","12","0.00","0.00"
"13:49:58","44.5","21.2","39.2","30.50","197","4.5","11.5","0.00","0.00"
"13:54:56","44.9","20.8","38.1","30.50","192","2.9","6","0.00","0.00"
"13:59:57","44.9","21.4","39.1","30.50","221","2.5","6","0.00","0.00"
"14:04:54","45.5","22.2","39.5","30.49","228","4.7","9.2","0.00","0.00"
"14:09:56","45.7","21","37.1","30.49","183","3.2","9.2","0.00","0.00"
"14:14:58","45.9","21.3","37.4","30.49","217","4.5","10.4","0.00","0.00"
"14:19:59","45.7","20.7","36.6","30.48","207","5","10.4","0.00","0.00"
"14:24:57","45.7","21.1","37.4","30.48","226","4.2","9","0.00","0.00"
"14:29:58","45.8","21.1","37.2","30.48","225","2","11","0.00","0.00"
"14:34:56","45.7","20.6","36.7","30.47","181","4.5","12","0.00","0.00"
"14:39:58","45.7","20.4","36.3","30.47","182","3.8","11.5","0.00","0.00"
"14:44:56","45.6","20.9","37.2","30.47","153","3.2","6","0.00","0.00"
"14:49:57","45.8","20.6","36.4","30.47","225","3.6","9.2","0.00","0.00"
"14:54:58","45.9","21.1","37","30.47","151","2.6","8.1","0.00","0.00"
"14:59:56","46.1","21.3","37","30.47","177","3.9","9","0.00","0.00"
"15:04:57","46.6","21.7","37.1","30.46","209","4.1","8.1","0.00","0.00"
"15:09:58","46.6","20.5","35.2","30.46","145","4","11.5","0.00","0.00"
"15:14:56","46.1","20.8","36.3","30.46","103","3.1","6","0.00","0.00"
"15:19:58","46","20.8","36.5","30.46","176","3.9","9.2","0.00","0.00"
"15:24:56","46.4","21.1","36.3","30.46","221","4.6","10.4","0.00","0.00"
"15:29:57","46.9","21.8","36.8","30.46","204","4.9","11.5","0.00","0.00"
"15:34:59","47.2","21.3","35.5","30.46","199","2.4","6.9","0.00","0.00"
"15:39:57","47.4","21.8","36.1","30.46","190","1.9","5","0.00","0.00"
"15:44:59","47.4","21.8","36","30.46","145","3.2","6","0.00","0.00"
"15:49:56","47.5","21.4","35.3","30.46","147","3.6","9.2","0.00","0.00"
"15:54:58","47.4","20.2","33.8","30.46","299","3.3","9.2","0.00","0.00"
"15:59:56","47.5","21.2","35","30.46","176","3.2","6","0.00","0.00"
"16:04:57","47.7","20.4","33.5","30.45","156","2","6.9","0.00","0.00"
"16:09:59","47.6","20.7","34.1","30.45","297","1.1","4","0.00","0.00"
"16:14:57","48","21.8","35.2","30.45","298","1.3","3","0.00","0.00"
"16:19:58","48.3","21","33.7","30.44","181","4.1","9.2","0.00","0.00"
"16:24:56","47.9","20.9","34.1","30.44","185","3.2","6","0.00","0.00"
"16:29:57","47.5","20.4","33.8","30.45","151","2.8","5","0.00","0.00"
"16:34:59","47.4","20.9","34.7","30.45","159","1.6","3.5","0.00","0.00"
"16:39:57","47.7","21","34.5","30.45","167","0.8","5","0.00","0.00"
"16:44:59","47.9","21.5","35","30.45","195","2.9","9.2","0.00","0.00"
"16:49:57","47.8","20.9","34.2","30.44","203","3.4","7","0.00","0.00"
"16:54:58","47.4","21.2","35.2","30.44","229","2.9","5.8","0.00","0.00"
"16:59:56","46.9","21.5","36.3","30.44","215","2.4","4","0.00","0.00"
"17:04:57","46.5","21.2","36.3","30.44","208","2.6","6","0.00","0.00"
"17:09:56","46.4","20.3","35.2","30.44","199","2.3","5","0.00","0.00"
"17:14:59","46.4","21","36.2","30.44","191","1.9","4","0.00","0.00"
"17:19:57","46.5","20.3","35","30.44","185","2.1","5","0.00","0.00"
"17:24:58","46.4","20.2","35","30.44","190","2.2","5","0.00","0.00"
"17:29:56","46.2","20.2","35.3","30.44","190","2.1","4","0.00","0.00"
"17:34:58","45.7","20.2","36","30.44","189","2.1","4","0.00","0.00"
"17:39:56","45.3","20","36.2","30.44","189","1.5","3.5","0.00","0.00"
"17:44:58","45","20.1","36.7","30.45","189","0.8","3.5","0.00","0.00"
"17:49:57","44.7","20","37","30.45","189","1.2","3.5","0.00","0.00"
"17:54:59","44.3","20.1","37.7","30.45","189","1.1","3.5","0.00","0.00"
"17:59:57","44","19.7","37.5","30.45","189","0.2","2.3","0.00","0.00"
"18:04:59","43.8","19.2","37","30.44","189","0","1.2","0.00","0.00"
"18:09:57","43.7","19.4","37.4","30.44","189","0.2","1.2","0.00","0.00"
"18:14:59","43.6","19.9","38.6","30.45","189","0.1","1.2","0.00","0.00"
"18:19:57","43.2","20.1","39.4","30.45","189","0","1.2","0.00","0.00"
"18:24:59","42.8","20.1","40","30.45","189","0","0","0.00","0.00"
"18:29:57","42.4","20","40.5","30.45","189","0","0","0.00","0.00"
"18:34:55","42","20.2","41.5","30.45","189","0","0","0.00","0.00"
"18:39:58","41.5","20.6","43.1","30.45","189","0","0","0.00","0.00"
"18:44:56","41","20.7","43.9","30.45","189","0","0","0.00","0.00"
"18:49:58","40.6","20.7","44.7","30.45","189","0","0","0.00","0.00"
"18:54:57","40","20.6","45.4","30.45","189","0","1.2","0.00","0.00"
"18:59:59","39.6","20.4","45.8","30.46","189","0.4","2.3","0.00","0.00"
"19:04:56","39.3","20.2","46","30.46","189","0","0","0.00","0.00"
"19:09:59","38.9","20.8","47.9","30.46","189","0","0","0.00","0.00"
"19:14:58","38.5","20.7","48.4","30.46","189","0","0","0.00","0.00"
"19:19:56","38.1","21.3","50.5","30.46","189","0","0","0.00","0.00"
"19:24:58","37.7","20.9","50.6","30.46","189","0","0","0.00","0.00"
"19:29:56","37.3","21.2","51.8","30.46","189","0","0","0.00","0.00"
"19:34:59","36.9","21.4","53.2","30.46","189","0","0","0.00","0.00"
"19:39:58","36.6","21.7","54.5","30.46","189","0","0","0.00","0.00"
"19:44:56","36.3","22.2","56.3","30.46","189","0","0","0.00","0.00"
"19:49:59","36","21.6","55.5","30.46","189","0","0","0.00","0.00"
"19:54:57","35.8","22.4","57.9","30.46","189","0","0","0.00","0.00"
"19:59:59","35.5","22.6","59","30.47","189","0.1","1.2","0.00","0.00"
"20:04:56","35.3","22.5","59.3","30.47","189","0","1.2","0.00","0.00"
"20:09:59","35.2","22.9","60.5","30.47","189","0","0","0.00","0.00"
"20:14:57","35","22.9","61","30.47","189","0","0","0.00","0.00"
"20:19:59","34.8","22.6","60.7","30.46","189","0","0","0.00","0.00"
"20:24:58","34.6","22.6","61.3","30.46","189","0","0","0.00","0.00"
"20:29:59","34.4","23.1","63.1","30.46","189","0","0","0.00","0.00"
"20:34:57","34.2","23.3","64","30.46","189","0","0","0.00","0.00"
"20:39:56","34.1","23","63.5","30.46","189","0","1.2","0.00","0.00"
"20:44:58","34.1","22.8","63","30.47","189","0.1","1.2","0.00","0.00"
"20:49:56","34.2","23.2","63.8","30.47","189","0","0","0.00","0.00"
"20:54:58","34.1","23.3","64.1","30.47","189","0","0","0.00","0.00"
"20:59:56","34.1","23.6","65","30.47","189","0","0","0.00","0.00"
"21:04:57","34.1","23.6","65","30.47","189","0","0","0.00","0.00"
"21:09:56","34","23.5","65","30.47","189","0","1.2","0.00","0.00"
"21:14:58","34","23.4","64.7","30.47","189","0.4","2.3","0.00","0.00"
"21:19:56","33.9","22.8","63.7","30.47","189","1.8","3","0.00","0.00"
"21:24:58","33.7","22.4","63","30.47","190","1.6","3.5","0.00","0.00"
"21:29:56","33.6","22.3","63","30.47","190","0.6","2.3","0.00","0.00"
"21:34:58","33.4","23.1","65.8","30.47","190","0.9","2.3","0.00","0.00"
"21:39:57","33.1","23.8","68.3","30.47","190","0.1","1.2","0.00","0.00"
"21:44:59","32.9","23.8","69","30.47","190","0","0","0.00","0.00"
"21:49:57","32.7","23.5","68.7","30.47","190","0","0","0.00","0.00"
"21:54:59","32.7","23.5","68.8","30.47","190","0","0","0.00","0.00"
"21:59:58","32.7","23.7","69.3","30.47","190","0","0","0.00","0.00"
"22:04:59","32.6","23.9","70","30.47","190","0","0","0.00","0.00"
"22:09:57","32.4","23.9","70.8","30.47","190","0","0","0.00","0.00"
"22:14:56","32.2","23.7","70.4","30.47","190","0","1","0.00","0.00"
"22:19:58","32.1","23.4","69.8","30.47","189","0","1.2","0.00","0.00"
"22:24:59","32.3","22.9","68","30.47","189","0","1.2","0.00","0.00"
"22:29:57","32.5","22.6","66.5","30.47","189","0.1","2","0.00","0.00"
"22:34:55","33.1","22.5","64.6","30.47","173","0.6","3.5","0.00","0.00"
"22:39:58","33.9","23","64","30.47","172","1.5","5","0.00","0.00"
"22:44:56","34.8","23.5","63","30.47","135","1.7","4.6","0.00","0.00"
"22:49:58","35.5","23.6","61.6","30.47","132","1.9","3.5","0.00","0.00"
"22:54:56","35.7","23.5","60.8","30.47","133","0.7","2.3","0.00","0.00"
"22:59:58","35.7","23.2","60","30.47","133","1.1","3.5","0.00","0.00"
"23:04:59","35.9","23.3","59.8","30.47","150","1.4","4","0.00","0.00"
"23:09:57","36","23.5","60.3","30.47","152","0.8","4","0.00","0.00"
"23:14:59","36.1","23.9","61","30.47","168","1.9","4","0.00","0.00"
"23:19:57","36.2","24.4","62","30.47","175","0.9","3.5","0.00","0.00"
"23:24:59","36.3","24.3","61.7","30.47","174","1.1","3.5","0.00","0.00"
"23:29:58","36.3","24.5","62","30.47","174","0.6","2.3","0.00","0.00"
"23:34:59","36.4","24.6","62","30.46","174","0.7","3.5","0.00","0.00"
"23:39:58","36.3","24.5","62","30.46","174","1","3.5","0.00","0.00"
"23:44:56","36.2","24.5","62.2","30.46","174","0.7","3.5","0.00","0.00"
"23:49:58","36.1","24.7","62.9","30.46","174","0.9","3.5","0.00","0.00"
"23:54:56","36","24.6","63","30.46","174","0.1","2.3","0.00","0.00"
"23:59:59","35.9","24.6","63.2","30.46","174","0.2","2.3","0.00","0.00"
